Find Orbcomm FM115

NORAD ID: 41186 Int'l Des: 2015-081 Owner: ORBC Country: US Constellation: orbcomm operational
LEOCIRCULAR

Live-Position

3D-Globus wird geladen...

Über Orbcomm FM115

Beschreibung wird geladen...

Nächste Überflüge

Passes for default location (London). Set your location on the main map for personalized predictions.

Höhenverlauf

Loading altitude history...

Zweizeiliger Elementsatz

1 41186U 15081H 26107.19214204 .00000355 00000-0 10240-3 0 9997
2 41186 46.9996 32.9294 0001120 346.1213 13.9643 14.63189764552285
Epoch: 17. Apr. 2026 • Age: 14 hours

Aktueller Status

Höhe 683.8 km
Geschwindigkeit 7.52 km/s
Subsatellitenpunkt 23.61°N, 64.53°E
Startdatum 22. Dez. 2015
Alter 10.3 years
Typ other

Technische Details

Klassifizierung Payload
Masse 172.00 kg
Trockenmasse 158.00 kg
Gesamtmasse 172.00 kg
Länge 1.00 m
Durchmesser 0.50 m
Spannweite 13.00 m
Form Box+pan+ant
Hersteller SNVL
Bus-Typ SN-100A
Phasenstatus In Orbit
Besitzer/Staat ORBC/US

Most Searched